Location: Harburg
(48.7667°N, 10.6667°E)
Time: 06:23:33
(UTC+00:00)

ARGOS - Pass Details

Date: 18 September 2020
Orbit: 821 x 834 km, 98.4° (Epoch: 22 October)

Event Time Altitude Azimuth Distance (km) Brightness Sun altitude
Rises 19:14:26 0° 187° (S) 3,341 6.1 -18.6°
Reaches altitude 10° 19:16:55 10° 195° (SSW) 2,413 5.5 -18.9°
Maximum altitude 19:21:54 39° 263° (W) 1,222 4.5 -19.7°
Drops below altitude 10° 19:26:56 10° 332° (NNW) 2,435 6.4 -20.4°
Sets 19:29:28 0° 340° (NNW) 3,375 7.1 -20.8°
